TOURFACTS.DK  
Stats and Facts from Tour de France.

Tour de France 2019 starts in 348 days
  Riders   Stages   Teams   Summits   Yearly  


 
Search by year

After 2018 - Stage 14:
 15000 starters.
  5163 different riders.
  639 teams.
  2246 stages.
  456 restdays.
  441957.60 km.
  5678 abandonnees.


Top 3
GC
Christopher Froome86:20:55
Rigoberto Urán86:21:49
Romain Bardet86:23:15
Climb
Warren Barguil169 pt.
Primoz Roglic80 pt.
Thomas De Gendt64 pt.
Sprint
Michael Matthews359 pt.
André Greipel234 pt.
Edvald Boasson Hagen220 pt.
Youth
Simon Yates86:27:09
Louis Meintjes86:29:15
Emanuel Buchmann86:54:16
Facts from Tour de France 1935
  |   Stages.  |   Stage winners.  |   Days in yellow  |   Average speed.  |   Route.  |   Teams.  |   All riders.  |   Rookies.  |  

  |   Withdrawls.  |   GC.  |   Polka  |   Green  |   White  |   Summits. (In tour)  |   Miscellaneous.  |  

Stage 5b on July 8th. 1935
         Owning:    Romain Maes    
Pick a stage:  1 2 3 4 5a 5b 6 7 8 9 10 11 12 13a 13b 14a 14b 15 16 17 18a 18b 19a 19b 20a 20b 21
From: Genève    To: EvianDist:52.00 km.

Average speed for all riders in stage:  28,900 km./hr.
    Place:Name:Team:Time:Km/h:
ITARafaële Di PacoITAItaly01:37:24  +  00:00:00=32,033 
FRAAntonin MagneFRAFrance01:37:26  +  00:00:02=32,022 
FRAMaurice ArchambaudFRAFrance01:37:31  +  00:00:07=31,995 
4 BELRomain MaesBELBelgium01:38:04  +  00:00:40=31,815 
5 FRAJoseph MauclairTouristes Routiers01:39:00  +  00:01:36=31,515 
6 FRARené BernardTouristes Routiers01:39:33  +  00:02:09=31,341 
7 ITAVasco BergamaschiITAItaly01:39:36  +  00:02:12=31,325 
8 BELJules LowieBELBelgium B01:39:50  +  00:02:26=31,252 
9 FRARené Le GrevesFRAFrance01:40:36  +  00:03:12=31,014 
10 FRACharles PelissierFRAFrance B01:41:36  +  00:04:12=30,709 
11 BELEdgard De CaluweBELBelgium01:41:37  +  00:04:13=30,704 
12 FRARoger LapebieFRAFrance B01:42:03  +  00:04:39=30,573 
13 BELFélicien VervaeckeBELBelgium01:42:03  +  00:04:39=30,573 
14 GEROskar ThierbachDEUGermany01:42:33  +  00:05:09=30,424 
15 FRAGeorges SpeicherFRAFrance01:42:36  +  00:05:12=30,409 
16 FRAAndré LeducqFRAFrance01:42:40  +  00:05:16=30,390 
17 ESPManuel GarciaTouristes Routiers01:42:40  +  00:05:16=30,390 
18 BELFrançois NeuvilleBELBelgium B01:42:53  +  00:05:29=30,326 
19 ITAEugenio GestriITACadetti Italiens01:43:05  +  00:05:41=30,267 
20 ITARemo BertoniITAItaly01:43:10  +  00:05:46=30,242 
21 FRARené DebenneFRAFrance01:43:26  +  00:06:02=30,164 
22 ESPSalvador CardonaESPSpain01:43:26  +  00:06:02=30,164 
23 BELSylvère MaesBELBelgium B01:43:36  +  00:06:12=30,116 
24 ITAAmbrogio MorelliITACadetti Italiens01:43:50  +  00:06:26=30,048 
25 ITAFrancesco CamussoITAItaly01:44:13  +  00:06:49=29,938 
26 FRACharles BertyTouristes Routiers01:44:28  +  00:07:04=29,866 
27 GERKurt StöpelDEUGermany01:44:28  +  00:07:04=29,866 
28 ITALuigi GiacobbeITAItaly01:44:36  +  00:07:12=29,828 
29 FRAGustave DanneelsBELBelgium01:44:39  +  00:07:15=29,814 
30 FRAHonore GranierTouristes Routiers01:44:47  +  00:07:23=29,776 
31 FRABenoit FaureTouristes Routiers01:45:02  +  00:07:38=29,705 
32 FRAPierre-Marie CloarecTouristes Routiers01:45:05  +  00:07:41=29,691 
33 FRAGabriel RuozziTouristes Routiers01:45:06  +  00:07:42=29,686 
34 ITAAdriano VignoliITAItaly01:45:11  +  00:07:47=29,662 
35 GERGeorg UmbenhauerDEUGermany01:45:21  +  00:07:57=29,616 
36 FRAJulien MoineauFRAFrance B01:45:30  +  00:08:06=29,573 
37 GERWilly KutschbachDEUGermany01:45:58  +  00:08:34=29,443 
38 FRAPierre CoganTouristes Routiers01:46:17  +  00:08:53=29,355 
39 GERBruno RothDEUGermany B01:46:35  +  00:09:11=29,273 
40 ESPEmiliano AlvarezESPSpain01:47:07  +  00:09:43=29,127 
41 ITAOrlando TeaniITACadetti Italiens01:47:23  +  00:09:59=29,055 
42 BELAntoine DignefBELBelgium B01:47:24  +  00:10:00=29,050 
43 ESPAntonio PriorESPSpain01:47:47  +  00:10:23=28,947 
44 BELHenri GarnierBELBelgium01:47:49  +  00:10:25=28,938 
45 GERGeorge HaendelDEUGermany B01:48:10  +  00:10:46=28,844 
46 ITAAldo BertoccoTouristes Routiers01:48:18  +  00:10:54=28,809 
47 ESPFrancisco CepedaESPSpain B01:48:31  +  00:11:07=28,751 
48 SUIKurt StettlerCHESwitzerland01:48:32  +  00:11:08=28,747 
49 FRALouis ThiétardTouristes Routiers01:48:42  +  00:11:18=28,703 
50 BELLouis HardiquestBELBelgium01:48:47  +  00:11:23=28,681 
51 ESPVicente BacheroESPSpain B01:49:11  +  00:11:47=28,576 
52 FRARené ViettoFRAFrance01:49:15  +  00:11:51=28,558 
53 BELJean AertsBELBelgium01:49:20  +  00:11:56=28,537 
54 FRAJules MervielFRAFrance01:50:05  +  00:12:41=28,342 
55 FRAGeorges HubatzTouristes Routiers01:50:34  +  00:13:10=28,218 
56 ITAPietro RimoldiITACadetti Italiens01:50:39  +  00:13:15=28,197 
57 LUXJosy KrausTouristes Routiers01:50:47  +  00:13:23=28,163 
58 FRAFernand FayolleTouristes Routiers01:50:47  +  00:13:23=28,163 
59 SUIFritz HartmannCHESwitzerland01:51:07  +  00:13:43=28,079 
60 FRAClément BistagneTouristes Routiers01:51:27  +  00:14:03=27,995 
61 FRAGeorges LachatTouristes Routiers01:51:42  +  00:14:18=27,932 
62 GEROtto WeckerlingDEUGermany01:51:47  +  00:14:23=27,911 
63 FRAMaurice PomarèdeTouristes Routiers01:51:56  +  00:14:32=27,874 
64 GEREmil KijewskiDEUGermany01:52:35  +  00:15:11=27,713 
65 FRAJean PhilipTouristes Routiers01:52:48  +  00:15:24=27,660 
66 FRARobert RenonceTouristes Routiers01:53:17  +  00:15:53=27,542 
67 ITAOreste BernardoniTouristes Routiers01:53:32  +  00:16:08=27,481 
68 GERAnton HodeyDEUGermany01:53:40  +  00:16:16=27,449 
69 GERGeorg StachDEUGermany B01:53:45  +  00:16:21=27,429 
70 ESPThéodore LadronTouristes Routiers01:54:01  +  00:16:37=27,364 
71 GERFerdinand IckesDEUGermany B01:54:37  +  00:17:13=27,221 
72 ITADante GianelloTouristes Routiers01:55:10  +  00:17:46=27,091 
73 GERKarl HeideDEUGermany01:56:02  +  00:18:38=26,889 
74 FRAPaul ChocqueTouristes Routiers01:56:37  +  00:19:13=26,754 
75 ESPDemetrio VicenteESPSpain B01:58:50  +  00:21:26=26,255 
76 ESPIsidro FiguerasESPSpain02:03:32  +  00:26:08=25,256 
77 FRAJean FontenayFRAFrance B02:20:22  +  00:42:58=22,227 
78 SUILéo AmbergCHESwitzerland02:27:25  +  00:50:01=21,165 


Todays birthdays.

1877  Antoine Perrichon
1878  Auguste Berthault
1911  Théo Herckenrath
1924  Carlo Lafranchi
1931  Armand Di Caro
1937  Jean-Claude Lebaube
1951  Giovanni Battaglin
1961  Pascal Jules
1962  Jean-Claude Leclercq
1976  Janek Tombak
1978  Francisco Pérez
1983  Dries Devenyns




Visits: